Weather History for Mountain Home, ID

Change the Weather History Date:

Sunday, December 23, 2012

  Actual Average Record
Temperature  
Mean Temperature 31 °F 29 °F  
Max Temperature 37 °F 37 °F 63 °F (1964)
Min Temperature 25 °F 20 °F -21 °F (1990)
Degree Days  
Heating Degree Days 34 36  
Month to date heating degree days 645 801  
Cooling Degree Days 0 0  
Month to date cooling degree days 0 0  
Moisture  
Dew Point 32 °F    
Average Humidity 99    
Maximum Humidity 100    
Minimum Humidity 83    
Precipitation  
Precipitation 0.03 in 0.05 in 0.90 in (1964)
Month to date precipitation 0.30 1.24  
Sea Level Pressure  
Sea Level Pressure 29.90 in    
Wind  
Wind Speed 13 mph (ESE)    
Max Wind Speed 24 mph    
Max Gust Speed 32 mph    
Visibility 7 miles    
Events Rain , Snow    
T = Trace of Precipitation, MM = Missing Value Source: NWS Daily Summary

Daily Weather History Graph

Daily Weather History Graph

Search for Another Location

Airport:

Trip Planner

Search our weather history database for the weather conditions in past years. The results will help you decide how hot, cold, wet, or windy it might be!

Date:

Astronomy

Dec. 23, 2012 Rise Set
Actual Time 8:12 AM MST 5:13 PM MST
Civil Twilight 7:40 AM MST 5:45 PM MST
Nautical Twilight 7:04 AM MST 6:21 PM MST
Astronomical Twilight 6:29 AM MST 6:56 PM MST
Moon 2:09 PM MST 3:56 AM MST
Length of Visible Light 10h 05m
Length of Day
9h 00m
Waxing Gibbous, 82% of the Moon is Illuminated
Dec 23
Waxing Gibbous
Dec 28
Full
Jan 4
Last Quarter
Jan 11
New
Jan 18
First Quarter

Hourly Weather History & Observations

Time (MST) Temp. Windchill Dew Point Humidity Pressure Visibility Wind Dir Wind Speed Gust Speed Precip Events Conditions
12:58 AM 26.1 °F 18.4 °F 26.1 °F 100% 29.99 in 10.0 mi East 6.9 mph - N/A   Partly Cloudy
1:58 AM 28.9 °F 22.8 °F 28.9 °F 100% 30.01 in 10.0 mi East 5.8 mph - N/A   Scattered Clouds
2:13 AM 28.4 °F 23.3 °F 28.4 °F 100% 29.96 in 10.0 mi East 4.6 mph - N/A   Mostly Cloudy
2:33 AM 26.6 °F 20.0 °F 26.6 °F 100% 29.97 in 10.0 mi ESE 5.8 mph - N/A   Mostly Cloudy
2:58 AM 25.9 °F 19.2 °F 25.9 °F 100% 30.03 in 10.0 mi SE 5.8 mph - N/A   Partly Cloudy
3:58 AM 26.8 °F 18.5 °F 26.8 °F 100% 30.03 in 10.0 mi South 8.1 mph - N/A   Clear
4:58 AM 25.2 °F 17.3 °F 25.2 °F 100% 30.05 in 10.0 mi SSE 6.9 mph - N/A   Clear
5:58 AM 27.3 °F 19.9 °F 27.3 °F 100% 30.06 in 10.0 mi ESE 6.9 mph - N/A   Clear
6:58 AM 28.9 °F 21.9 °F 28.9 °F 100% 30.06 in 10.0 mi NE 6.9 mph - N/A   Mostly Cloudy
7:58 AM 27.1 °F 18.9 °F 27.1 °F 100% 30.08 in 10.0 mi ESE 8.1 mph - N/A   Overcast
8:58 AM 27.9 °F 17.8 °F 27.9 °F 100% 30.06 in 10.0 mi East 11.5 mph - N/A   Clear
9:58 AM 31.1 °F 20.9 °F 31.1 °F 100% 30.06 in 10.0 mi East 13.8 mph - N/A   Overcast
10:43 AM 32.0 °F 21.2 °F 32.0 °F 100% 30.00 in 10.0 mi ESE 16.1 mph - N/A   Overcast
10:58 AM 33.6 °F 24.1 °F 33.6 °F 100% 30.08 in 10.0 mi ESE 13.8 mph - N/A   Mostly Cloudy
11:38 AM 33.8 °F 24.3 °F 33.8 °F 100% 29.98 in 10.0 mi ESE 13.8 mph - N/A   Scattered Clouds
11:58 AM 34.7 °F 25.5 °F 34.3 °F 99% 30.04 in 10.0 mi ESE 13.8 mph - N/A   Mostly Cloudy
12:03 PM 35.6 °F 25.9 °F 33.8 °F 93% 29.96 in 10.0 mi ESE 16.1 mph - N/A   Mostly Cloudy
12:08 PM 35.6 °F 25.9 °F 32.0 °F 87% 29.96 in 10.0 mi ESE 16.1 mph - N/A   Overcast
12:13 PM 35.6 °F 25.9 °F 32.0 °F 87% 29.96 in 10.0 mi East 16.1 mph - N/A   Mostly Cloudy
12:18 PM 35.6 °F 25.9 °F 32.0 °F 87% 29.95 in 10.0 mi East 16.1 mph - N/A   Overcast
12:58 PM 36.1 °F 26.9 °F 31.3 °F 83% 30.00 in 10.0 mi ESE 15.0 mph - N/A   Mostly Cloudy
1:03 PM 35.6 °F 26.6 °F 32.0 °F 87% 29.94 in 10.0 mi ESE 13.8 mph - N/A   Overcast
1:38 PM 35.6 °F 24.8 °F 35.6 °F 100% 29.91 in 2.0 mi ESE 19.6 mph - N/A Rain Light Rain
1:43 PM 33.8 °F 22.8 °F 33.8 °F 100% 29.92 in 1.8 mi ESE 18.4 mph - N/A Rain Light Rain
1:48 PM 33.8 °F 23.2 °F 33.8 °F 100% 29.91 in 1.5 mi ESE 17.3 mph - N/A Snow Light Snow
1:53 PM 32.0 °F 20.8 °F 32.0 °F 100% 29.91 in 1.2 mi ESE 17.3 mph - N/A Snow Light Snow
1:58 PM 33.4 °F 22.7 °F 33.4 °F 100% 29.97 in 1.5 mi East 17.3 mph - 0.00 in Snow Light Snow
2:03 PM 32.0 °F 20.5 °F 32.0 °F 100% 29.89 in 1.8 mi East 18.4 mph - N/A Snow Light Snow
2:07 PM 32.0 °F 21.2 °F 32.0 °F 100% 29.89 in 2.0 mi East 16.1 mph - N/A Rain Light Freezing Rain
2:14 PM 32.0 °F 20.1 °F 32.0 °F 100% 29.88 in 2.0 mi East 19.6 mph - N/A Rain Light Freezing Rain
2:16 PM 32.0 °F 20.1 °F 32.0 °F 100% 29.88 in 2.0 mi East 19.6 mph - N/A Snow Light Snow
2:21 PM 32.0 °F 20.1 °F 32.0 °F 100% 29.87 in 1.8 mi East 19.6 mph - N/A Snow Light Snow
2:26 PM 32.0 °F 19.5 °F 32.0 °F 100% 29.87 in 1.5 mi East 21.9 mph 26.5 mph N/A Snow Light Snow
2:41 PM 32.0 °F 19.8 °F 32.0 °F 100% 29.85 in 1.8 mi East 20.7 mph - N/A Snow Light Snow
2:46 PM 32.0 °F 19.8 °F 32.0 °F 100% 29.85 in 2.5 mi East 20.7 mph - N/A Snow Light Snow
2:58 PM 32.7 °F 21.1 °F 32.7 °F 100% 29.92 in 1.8 mi East 19.6 mph - 0.01 in Snow Light Snow
3:03 PM 32.0 °F 19.5 °F 32.0 °F 100% 29.84 in 2.0 mi East 21.9 mph 27.6 mph N/A Snow Light Snow
3:13 PM 32.0 °F 19.5 °F 32.0 °F 100% 29.83 in 1.8 mi East 21.9 mph - N/A Snow Light Snow
3:23 PM 32.0 °F 19.5 °F 32.0 °F 100% 29.83 in 2.0 mi East 21.9 mph - N/A Snow Light Snow
3:28 PM 32.0 °F 19.5 °F 32.0 °F 100% 29.83 in 1.8 mi East 21.9 mph 27.6 mph N/A Snow Light Snow
3:33 PM 32.0 °F 19.2 °F 32.0 °F 100% 29.82 in 1.5 mi East 23.0 mph 27.6 mph N/A Snow Light Snow
3:48 PM 32.0 °F 19.2 °F 32.0 °F 100% 29.82 in 1.8 mi East 23.0 mph 31.1 mph N/A Snow Light Snow
3:53 PM 32.0 °F 18.9 °F 32.0 °F 100% 29.81 in 2.0 mi East 24.2 mph 29.9 mph N/A Snow Light Snow
3:58 PM 32.7 °F 20.1 °F 32.7 °F 100% 29.88 in 2.5 mi East 23.0 mph 29.9 mph 0.01 in Snow Light Snow
4:03 PM 32.0 °F 19.5 °F 32.0 °F 100% 29.81 in 4.0 mi East 21.9 mph 28.8 mph N/A Snow Light Snow
4:08 PM 32.0 °F 19.5 °F 32.0 °F 100% 29.80 in 5.0 mi East 21.9 mph 29.9 mph N/A Snow Light Snow
4:09 PM 32.0 °F 18.9 °F 32.0 °F 100% 29.80 in 5.0 mi East 24.2 mph 29.9 mph N/A Rain Light Freezing Rain
4:10 PM 32.0 °F 19.2 °F 32.0 °F 100% 29.80 in 5.0 mi East 23.0 mph 29.9 mph N/A Rain Light Rain
4:35 PM 32.0 °F 19.2 °F 32.0 °F 100% 29.79 in 10.0 mi East 23.0 mph 32.2 mph N/A Rain Light Rain
4:58 PM 33.4 °F 21.7 °F 33.4 °F 100% 29.86 in 10.0 mi East 20.7 mph 29.9 mph 0.00 in   Overcast
5:58 PM 33.8 °F 22.5 °F 33.8 °F 100% 29.83 in 10.0 mi East 19.6 mph 28.8 mph 0.01 in   Overcast
6:08 PM 33.8 °F 21.6 °F 33.8 °F 100% 29.76 in 10.0 mi East 23.0 mph 31.1 mph N/A   Overcast
6:38 PM 33.8 °F 21.9 °F 33.8 °F 100% 29.76 in 10.0 mi East 21.9 mph - N/A   Mostly Cloudy
6:58 PM 34.2 °F 23.6 °F 34.2 °F 100% 29.81 in 10.0 mi East 17.3 mph 25.3 mph N/A   Mostly Cloudy
7:23 PM 33.8 °F 23.2 °F 33.8 °F 100% 29.74 in 10.0 mi East 17.3 mph - N/A   Mostly Cloudy
7:58 PM 34.3 °F 23.9 °F 34.3 °F 100% 29.82 in 10.0 mi ESE 17.3 mph 24.2 mph N/A   Overcast
8:58 PM 34.2 °F 25.7 °F 34.2 °F 100% 29.81 in 10.0 mi ESE 11.5 mph - N/A   Overcast
9:58 PM 34.3 °F 26.5 °F 34.3 °F 100% 29.80 in 10.0 mi ESE 10.4 mph - N/A   Overcast
10:58 PM 33.8 °F 24.3 °F 33.8 °F 100% 29.79 in 10.0 mi ESE 13.8 mph - N/A   Overcast
11:58 PM 33.4 °F 24.3 °F 33.4 °F 100% 29.79 in 10.0 mi ESE 12.7 mph - N/A   Scattered Clouds